This is the latest recevied weather packets stored in our database for station/object DM3FAM-10. If no packets are shown the sender has not sent any weather packets the latest 10 day(s).
| Time | Temp. | Humidity | Pressure | Rain* | Wind** | Luminosity | Snow |
|---|---|---|---|---|---|---|---|
| 1777094759 | 2.22° C | 100% | 969.5 hPa | - | - | - | - |
| 1777093859 | 2.22° C | 100% | 969.5 hPa | - | - | - | - |
| 1777092959 | 1.67° C | 100% | 969.5 hPa | - | - | - | - |
| 1777092059 | 2.22° C | 100% | 969.3 hPa | - | - | - | - |
| 1777091158 | 1.67° C | 100% | 969.4 hPa | - | - | - | - |
| 1777090258 | 2.22° C | 100% | 969.4 hPa | - | - | - | - |
| 1777089358 | 1.11° C | 100% | 969.4 hPa | - | - | - | - |
| 1777088458 | 2.22° C | 100% | 969.4 hPa | - | - | - | - |
| 1777087558 | 2.22° C | 100% | 969.6 hPa | - | - | - | - |
| 1777085758 | 2.78° C | 100% | 969.5 hPa | - | - | - | - |
| 1777084858 | 2.22° C | 100% | 969.5 hPa | - | - | - | - |
| 1777083958 | 2.78° C | 100% | 969.5 hPa | - | - | - | - |
| 1777083058 | 2.22° C | 100% | 969.5 hPa | - | - | - | - |
| 1777082158 | 2.78° C | 100% | 969.4 hPa | - | - | - | - |
| 1777081258 | 3.33° C | 100% | 969.2 hPa | - | - | - | - |
| 1777080358 | 3.89° C | 100% | 969.3 hPa | - | - | - | - |
| 1777079458 | 3.89° C | 100% | 969.2 hPa | - | - | - | - |
| 1777078558 | 3.89° C | 100% | 969.3 hPa | - | - | - | - |
| 1777077657 | 3.89° C | 100% | 969.4 hPa | - | - | - | - |
| 1777076757 | 3.33° C | 100% | 969.6 hPa | - | - | - | - |
| 1777075857 | 4.44° C | 100% | 969.7 hPa | - | - | - | - |
| 1777074957 | 3.33° C | 100% | 969.9 hPa | - | - | - | - |
| 1777074057 | 4.44° C | 99% | 969.9 hPa | - | - | - | - |
| 1777073157 | 3.89° C | 100% | 969.9 hPa | - | - | - | - |
| 1777072257 | 3.89° C | 100% | 970.1 hPa | - | - | - | - |
* Rain since midnight (hover to see other rain measurements)
** Current wind speed in m/s (hover to see current wind gust speed)